This demonstration page uses our WeatherBlox Daily Observations layout. Learn more.

Left ArrowRight Arrow

Hourly Observations for August 20, 2021

Temp ( °F °C ) Dew Point ( °F °C ) Humidity (%) Winds ( mph kmh ) Pressure ( in mb ) Visibility ( mi km ) Precip ( " mm )
12:54 am 00:54 Clear 78 25.6 72 22.2 82 82 SE 12 19 29.85 1011 10 16 0.00 0.00
1:54 am 01:54 Clear 77 25 72 22.2 85 85 SSE 12 19 29.84 1010 10 16 0.00 0.00
2:54 am 02:54 Clear 76 24.4 72 22.2 88 88 SSE 13 20 29.81 1010 10 16 0.00 0.00
3:54 am 03:54 Mostly Clear 76 24.4 71 21.7 85 85 SSE 10 17 29.80 1009 10 16 0.00 0.00
4:19 am 04:19 Mostly Cloudy 75 23.9 71 21.7 88 88 SSE 7 11 29.80 1009 10 16 0.00 0.00
4:28 am 04:28 Mostly Cloudy 76 24.4 72 22.2 88 88 SSE 12 19 29.79 1009 10 16 0.00 0.00
4:54 am 04:54 Mostly Cloudy 75 23.9 71 21.7 88 88 SSE 8 13 29.81 1009 10 16 0.00 0.00
5:09 am 05:09 Mostly Cloudy 76 24.4 71 21.7 85 85 SE 8 13 29.79 1009 10 16 0.00 0.00
5:45 am 05:45 Partly Cloudy 75 23.9 71 21.7 88 88 ESE 12 19 29.77 1008 10 16 0.00 0.00
5:54 am 05:54 Mostly Clear 75 23.9 71 21.7 88 88 ESE 13 20 29.77 1008 10 16 0.00 0.00
6:32 am 06:32 Partly Cloudy with Nearby Thunderstorms 75 23.9 71 21.7 88 88 ESE 10 17 29.75 1007 10 16 0.00 0.00
6:44 am 06:44 Mostly Cloudy with Thunderstorms 75 23.9 71 21.7 88 88 SE 7 11 29.76 1008 10 16 0.00 0.00
6:54 am 06:54 Mostly Cloudy with Thunderstorms 75 23.9 71 21.7 88 88 VRB 3 6 29.78 1009 10 16 0.00 0.00
7:03 am 07:03 Cloudy with Thunderstorms 76 24.4 72 22.2 88 88 WSW 8 13 29.80 1009 4 6 0.00 0.00
7:08 am 07:08 Cloudy with Strong Thunderstorms 75 23.9 72 22.2 90 90 WSW 7 11 29.80 1009 2 3 0.05 1.27
7:16 am 07:16 Cloudy with Thunderstorms 74 23.3 72 22.2 94 94 Calm 29.80 1009 3 5 0.12 3.05
7:23 am 07:23 Cloudy with Thunderstorms 74 23.3 72 22.2 94 94 Calm 29.80 1009 6 10 0.13 3.30
7:28 am 07:28 Cloudy with Nearby Thunderstorms 75 23.9 72 22.2 90 90 Calm 29.80 1009 7 11 0.13 3.30
7:35 am 07:35 Cloudy with Nearby Thunderstorms 74 23.3 72 22.2 94 94 NE 3 6 29.80 1009 5 8 0.13 3.30
7:39 am 07:39 Cloudy with Nearby Thunderstorms 74 23.3 72 22.2 94 94 Calm 29.80 1009 4 6 0.13 3.30
7:47 am 07:47 Cloudy with Light Rain 74 23.3 72 22.2 94 94 ENE 8 13 29.78 1009 5 8 0.14 3.56
7:54 am 07:54 Mostly Cloudy with Light Rain 74 23.3 72 22.2 94 94 E 7 11 29.79 1009 5 8 0.15 3.81
8:10 am 08:10 Mostly Cloudy with Light Rain 75 23.9 72 22.2 90 90 E 8 13 29.77 1008 6 10 0.00 0.00
8:54 am 08:54 Partly Cloudy 76 24.4 73 22.8 91 91 SE 18 30 29.75 1008 8 13 0.00 0.00
9:54 am 09:54 Sunny 80 26.7 73 22.8 79 79 SE 16 26 29.72 1006 10 16 0.00 0.00
10:54 am 10:54 Mostly Sunny 82 27.8 72 22.2 72 72 SE 23 37 29.71 1006 10 16 0.00 0.00
11:11 am 11:11 Mostly Cloudy 83 28.3 72 22.2 70 70 SSE 23 37 29.68 1005 10 16 0.00 0.00
11:40 am 11:40 Mostly Cloudy 84 28.9 73 22.8 70 70 SSE 25 41 29.67 1005 10 16 0.00 0.00
11:54 am 11:54 Mostly Cloudy 85 29.4 73 22.8 68 68 SSE 24 39 29.70 1006 10 16 0.00 0.00
12:54 pm 12:54 Cloudy 85 29.4 73 22.8 68 68 SSE 23 37 29.70 1006 10 16 0.00 0.00
1:54 pm 13:54 Mostly Cloudy 87 30.6 74 23.3 65 65 S 17 28 29.70 1006 10 16 0.00 0.00
2:05 pm 14:05 Partly Cloudy with Light Rain 89 31.7 75 23.9 63 63 S 16 26 29.66 1004 10 16 0.00 0.00
2:54 pm 14:54 Partly Cloudy 90 32.2 74 23.3 59 59 SSW 15 24 29.69 1005 10 16 0.00 0.00
3:54 pm 15:54 Partly Cloudy 91 32.8 74 23.3 57 57 SW 15 24 29.68 1005 10 16 0.00 0.00
4:54 pm 16:54 Sunny 90 32.2 71 21.7 54 54 SSW 15 24 29.65 1004 10 16 0.00 0.00
5:54 pm 17:54 Mostly Sunny 87 30.6 72 22.2 61 61 WSW 5 7 29.65 1004 10 16 0.00 0.00
6:41 pm 18:41 Partly Cloudy with Nearby Thunderstorms 79 26.1 70 21.1 74 74 NNW 20 31 29.63 1003 10 16 0.00 0.00
6:54 pm 18:54 Partly Cloudy with Nearby Thunderstorms 78 25.6 70 21.1 76 76 NNW 16 26 29.65 1004 10 16 0.00 0.00
7:07 pm 19:07 Mostly Cloudy 78 25.6 69 20.6 74 74 NNW 13 20 29.65 1004 10 16 0.00 0.00
7:54 pm 19:54 Mostly Sunny 78 25.6 69 20.6 74 74 E 6 9 29.71 1006 10 16 0.00 0.00
8:54 pm 20:54 Mostly Cloudy 78 25.6 68 20 71 71 W 8 13 29.74 1007 10 16 0.00 0.00
9:54 pm 21:54 Clear 76 24.4 68 20 77 77 S 5 7 29.76 1008 10 16 0.00 0.00
10:54 pm 22:54 Partly Cloudy 75 23.9 67 19.4 76 76 WNW 5 7 29.75 1008 10 16 0.00 0.00
11:54 pm 23:54 Mostly Clear 72 22.2 66 18.9 82 82 SSE 3 6 29.79 1009 10 16 0.00 0.00

Powered by AerisWeather